Weather Roundup
Issued by NWS Chicago, IL

Home | Current Version | Previous Version | Graphics & Text | Print | Product List | Glossary On
Versions: 1 2 3 4 5 6 7 8 9 10 11 12 13 14 15 16 17 18 19 20 21 22 23 24 25 26 27 28 29 30 31 32 33 34 35 36 37 38 39 40 41 42 43 44 45 46 47 48 49 50
000
NZUS59 KLOT 270800
HRRLOT

CHICAGO AREA WEATHER ROUNDUP
NATIONAL WEATHER SERVICE CHICAGO/ROMEOVILLE IL
200 AM CST FRI FEB 27 2015

NOTE: "FAIR" INDICATES FEW OR NO CLOUDS BELOW 12,000 FEET WITH NO
SIGNIFICANT WEATHER AND/OR OBSTRUCTIONS TO VISIBILITY.

* THESE STATIONS ARE NOT UNDER NWS QUALITY CONTROL. THEY ALSO MAY NOT
  REPORT WEATHER SUCH AS PRECIPITATION OR FOG.

ILZ005-006-012>014-019>023-270900-
NORTHEAST ILLINOIS

CITY           SKY/WX    TMP DP  RH WIND       PRES   REMARKS
OHARE          CLEAR      0  -8  69 NW8       30.44R WCI -14
MIDWAY         PTCLDY     6  -4  63 NW6       30.45R WCI  -4
AURORA         CLEAR    -12 -19  71 W8        30.47R WCI -29
LANSING*       PTCLDY     1  -6  72 W5        30.44R WCI  -8
WAUKEGAN       CLEAR     -1  -8  72 W7        30.44R WCI -14
DUPAGE AIRPORT   N/A     -3 -10  72 CALM      30.44R
WHEELING       CLEAR      2  -7  66 NW8       30.46R WCI -12
NORTHERLY IS     N/A     11  -2  56 NW10        N/A  WCI  -2
$$

WIZ051-052-058>065-066-070>072-270900-
SOUTHEAST WISCONSIN

CITY           SKY/WX    TMP DP  RH WIND       PRES   REMARKS
MILWAUKEE      CLEAR      4  -7  60 W7        30.44R WCI  -8
KENOSHA*       CLEAR     -7 -12  79 W5        30.44R WCI -18
RACINE*        CLEAR      1  -9  62 W7        30.46R WCI -12
$$

INZ001>003-010>013-019-020-270900-
NORTHWEST INDIANA

CITY           SKY/WX    TMP DP  RH WIND       PRES   REMARKS
GARY*          MOCLDY     7  -7  52 W8        30.44R WCI  -5
MICHIGAN CITY* NOT AVBL
RENSSELAER*    NOT AVBL
$$

LMZ740>746-270900-
SOUTHERN LAKE MICHIGAN

STATION/POSITION TIME  SKY/WX   TEMP WIND        PRES    VSBY
                                AIR  DIR/SP/G
                 (UTC)          (F)  (DEG/KT/KT) (MB)    (MI)
HARRISON CRIB    0700            11  320/ 15/ 18   N/A
BURNHAM HARBOR   0800            11  310/  7/ 12   N/A
CALUMET HARBOR   0700             9  280/  8/ 10 1029.1R
BURNS HARBOR     NOT AVBL
MICHIGAN CITY    0700            11   50/  6/  7   N/A
$$

ABBREVIATIONS USED IN REMARKS
   TC - TEMPERATURE IN CELSIUS
  WCI - WIND CHILL INDEX
   HX - HEAT INDEX
  VSB - VISIBILITY
$$


USA.gov is the U.S. government's official web portal to all federal, state and local government web resources and services.